Location: Caltech
(34.1382°N, 118.1253°W)
Time: 00:59:43
(UTC-08:00)

CZ-2C R/B - Visible Passes

Search period start: 21 February 2018 00:00
Search period end: 03 March 2018 00:00
Orbit: 668 x 785 km, 98.1° (Epoch: 20 February)

Date Brightness Start Highest point End Pass type
(mag) Time Alt. Az. Time Alt. Az. Time Alt. Az.
21 Feb 2.6 05:13:02 10° NNE 05:18:09 82° ESE 05:23:19 10° S visible
22 Feb 4.7 04:25:48 10° NE 04:30:03 26° E 04:34:20 10° SSE visible
23 Feb 2.5 05:15:16 10° NNE 05:20:25 87° ESE 05:25:36 10° SSW visible
24 Feb 4.6 04:27:58 10° NE 04:32:20 28° E 04:36:43 10° SSE visible
25 Feb 2.5 05:17:31 10° NNE 05:22:41 89° W 05:27:52 10° SSW visible
26 Feb 4.5 04:30:08 10° NE 04:34:37 29° E 04:39:06 10° SSE visible
27 Feb 2.5 05:19:46 10° N 05:24:56 84° WNW 05:30:08 10° SSW visible
28 Feb 4.4 04:32:19 10° NE 04:36:53 31° E 04:41:27 10° SSE visible
01 Mar 2.5 05:22:01 10° N 05:27:12 80° WNW 05:32:23 10° SSW visible
02 Mar 4.3 04:34:30 10° NNE 04:39:10 33° E 04:43:48 10° SSE visible
